Regional Weather Roundup
Issued by NWS Mobile, AL

Home | Current Version | Previous Version | Text Only | Print | Product List | Glossary On
Versions: 1 2 3 4 5 6 7 8 9 10 11 12 13 14 15 16 17 18 19 20 21 22 23 24 25 26 27 28 29 30 31 32 33 34 35 36 37 38 39 40 41 42 43 44 45 46 47 48 49 50
000
ASUS44 KMOB 170113
RWRMOB
REGIONAL WEATHER ROUNDUP
NATIONAL WEATHER SERVICE MOBILE AL
700 PM CST SAT NOV 16 2019

NOTE: "FAIR" INDICATES FEW OR NO CLOUDS BELOW 12,000 FEET WITH NO
      SIGNIFICANT WEATHER AND/OR OBSTRUCTIONS TO VISIBILITY.

  * THESE STATIONS ARE PART OF THE UNIVERSITY OF SOUTH ALABAMA
    MESONET AND ARE NOT UNDER NWS OR FAA QUALITY CONTROL.

ALZ061>064-170200-
COASTAL ALABAMA

CITY           SKY/WX    TMP DP  RH WIND       PRES   REMARKS
MOBILE REG APT FAIR      47  41  80 N3        30.07S
BROOKLEY FIELD FAIR      49  41  74 NW6       30.08S
USA CAMPUS*    NOT AVBL
DOG RIVER*     NOT AVBL


CITY           SKY/WX    TMP DP  RH WIND       PRES   REMARKS
GULF SHORES    FAIR      49  40  71 CALM      30.05S

$$

ALZ051>060-170200-
INTERIOR SOUTHWEST AND SOUTH CENTRAL ALABAMA

CITY           SKY/WX    TMP DP  RH WIND       PRES   REMARKS
GREENVILLE     FAIR      51  37  58 NW6       30.05S
EVERGREEN      FAIR      48  41  76 N3        30.07R
ATMORE*          N/A     50  39  66 N5        30.07R
ANDALUSIA/OPP  FAIR      53  42  66 NW5       30.04S
ANDALUSIA*       N/A     52  41  66 NW5       30.05R
FLORALA APT    NOT AVBL
FLORALA*         N/A     52  43  71 W2        30.04R

$$

FLZ001>006-170200-
WESTERN FLORIDA PANHANDLE

CITY           SKY/WX    TMP DP  RH WIND       PRES   REMARKS
PENSACOLA      FAIR      53  42  66 NW6       30.04R
NAS PENSACOLA  NOT AVBL
MILTON         FAIR      52  39  61 N5        30.05R
WHTNG S FIELD  FAIR      51  40  65 N8        30.05R


CITY           SKY/WX    TMP DP  RH WIND       PRES   REMARKS
JAY*             N/A     52  37  58 NE6       30.07R
DUKE FIELD     FAIR      51  42  72 NW5       30.03R
CRESTVIEW      FAIR      54  42  64 N6        30.05R
VALPARAISO     FAIR      54  43  67 NW6       30.03R
DESTIN         FAIR      56  46  69 N8        30.03R

$$

MSZ076-079-170200-
INTERIOR SOUTHEAST MISSISSIPPI

CITY           SKY/WX    TMP DP  RH WIND       PRES   REMARKS
LEAKESVILLE*     N/A     48  37  66 NE5       30.09
AGRICOLA*        N/A    N/A N/A N/A N2        30.07

$$

MARINE OBSERVATIONS

STATION/POSITION TIME  TEMP    WIND        PRES    WAVE
                       AIR SEA DIR/SP/G            HT/PER
                 (UTC) (F)     (DEG/KT/KT) (MB)    (FT/S)
PETIT BOIS ISLND 0024   58     360/  8/  9 1018.0
GRAND BAY        2345   56     350/  4     1019.0R
KATRINA CUT      0030   56     360/  6     1018.0F
CEDAR POINT      0030   55     330/  6     1017.6R
E DAUPHIN ISLAND 0000   56     330/  6/  6 1017.7R
USCG MOBILE BAY  0030   62 61  320/  4/  5 1018.3R
STATE DOCKS      0030      60              1018.2R
MEAHER PARK      0030   53        CALM     1018.3S
WEEKS BAY        2345   50                 1017.0S
FORT MORGAN      0030           30/ 10/ 12 1017.6R
12 S ORANGE BCH  0050   61 72  350/ 16/ 19 1017.4S   2/ 3
PENSACOLA BAY    0030   57 59  320/  3/  4 1017.5R
64 S DAUPHIN ISL 0050   63     360/ 14/ 19 1017.5S   3/ 4

$$

SELECTED LOCATIONS ACROSS THE REGION

CITY           SKY/WX    TMP DP  RH WIND       PRES   REMARKS
NEW ORLEANS    MOCLDY    50  41  71 NW3       30.09R
GULFPORT       FAIR      50  37  61 N5        30.07R
PASCAGOULA AP  FAIR      43  38  82 CALM      30.07R
PASCAGOULA*      N/A     46  41  81 CALM      30.07
HATTIESBURG    FAIR      44  38  79 CALM      30.09S
LAUREL         FAIR      49  36  61 NW6       30.10R
MERIDIAN       FAIR      44  36  73 CALM      30.10R
JACKSON        FAIR      44  32  62 N3        30.11S
MONTGOMERY     FAIR      51  39  63 NW7       30.07R
TROY           FAIR      44  44 100 CALM      30.06R
ASHFORD*         N/A     52  41  66 NW5       30.05R
DOTHAN         MOCLDY    54  47  77 NW7       30.06R
PANAMA CITY    FAIR      54  47  77 NW7       30.01R

$$




USA.gov is the U.S. government's official web portal to all federal, state and local government web resources and services.